Location: Hurstbourne Priors
(51.2000°N, 1.3667°W)
Time: 19:33:24
(UTC+00:00)

Transit 4A - Pass Details

Date: 20 April 2021
Orbit: 870 x 974 km, 66.8° (Epoch: 09 May)

Event Time Altitude Azimuth Distance (km) Brightness Sun altitude
Rises 21:33:01 0° 148° (SSE) 3,623 - -18.9°
Reaches altitude 10° 21:37:50 10° 115° (ESE) 2,660 - -19.4°
Maximum altitude 21:39:26 11° 100° (E) 2,578 - -19.6°
Drops below altitude 10° 21:41:01 10° 85° (E) 2,647 - -19.7°
Exits shadow 21:41:14 10° 83° (E) 2,668 10.0 -19.7°
Sets 21:45:45 0° 52° (NE) 3,568 11.0 -20.2°
